Flag for Croatia Weather past 2 weeks in Dubrovnik, Croatia

Now
54 °F

Scattered clouds.


Feels Like: 50 °F
Forecast: 47 / 55 °F
Wind: 10 mph from Southeast

Location: Dubrovnik / Cilipi


UV Index: 3 (Moderate)

Visibility: N/A


Pressure: 29.65 "Hg

Humidity: 77%

Dew point: 46 °F

Location of DubrovnikLocation

Historic Weather in Dubrovnik

°F

Dubrovnik temperature yesterday

Maximum temperature yesterday: 55 °F (at 12:30 PM)
Minimum temperature yesterday: 46 °F (at 5:00 AM)
Average temperature yesterday: 51 °F

Past Weeks' High & Low Weather Summary

 TemperatureHumidityPressure
High68 °F (Apr 7, 10:30 AM)94% (Apr 5, 12:00 AM)30.09 "Hg (Apr 5, 12:00 AM)
Low45 °F (Apr 12, 3:30 AM)24% (Apr 10, 3:00 PM)29.65 "Hg (Apr 18, 9:30 AM)
Average56 °F58%29.92 "Hg
* Reported Apr 3 5:00 PM — Apr 18 5:30 PM, Dubrovnik, Weather by CustomWeather, © 2014

Note: Actual official high and low records may vary slightly from our data, if they occured in-between our weather recording intervals... More about our weather records

Advertising

Historic Weather Conditions — Data for Previous 24 hours

 ConditionsComfort  
Time TempWeatherWind HumidityBarometerVisibility
5:30 PM
Apr 18
55 °FScattered clouds.8 mph72%29.65 "HgN/A
5:00 PM55 °FPassing clouds.8 mph67%29.65 "HgN/A
4:30 PM55 °FPassing clouds.9 mph67%29.65 "HgN/A
4:00 PM55 °FPassing clouds.9 mph67%29.65 "HgN/A
3:30 PM55 °FLight rain. Scattered clouds.12 mph63%29.65 "HgN/A
3:00 PM57 °FScattered clouds.10 mph59%29.65 "HgN/A
2:30 PM57 °FPassing clouds.8 mph59%29.65 "HgN/A
2:00 PM57 °FPassing clouds.1 mph55%29.65 "HgN/A
1:30 PM57 °FPassing clouds.7 mph59%29.65 "HgN/A
1:00 PM57 °FPassing clouds.10 mph59%29.65 "HgN/A
12:30 PM55 °FPassing clouds.10 mph63%29.65 "HgN/A
12:00 PM55 °FPassing clouds.12 mph63%29.65 "HgN/A
11:30 AM55 °FPassing clouds.10 mph63%29.65 "HgN/A
11:00 AM55 °FPassing clouds.8 mph59%29.65 "HgN/A
10:30 AM55 °FSunny.10 mph59%29.65 "Hg10 mi
10:00 AM54 °FSunny.12 mph58%29.65 "Hg10 mi
9:30 AM54 °FSunny.10 mph58%29.65 "Hg10 mi
9:00 AM52 °FPassing clouds.8 mph62%29.68 "HgN/A
8:30 AM52 °FPassing clouds.8 mph62%29.68 "HgN/A
8:00 AM50 °FPassing clouds.9 mph67%29.68 "HgN/A
7:30 AM48 °FLight rain. Passing clouds.5 mph71%29.68 "HgN/A
7:00 AM50 °FLight rain. Passing clouds.12 mph62%29.68 "HgN/A
6:30 AM50 °FPassing clouds.8 mph62%29.68 "HgN/A
6:00 AM50 °FLight rain. Passing clouds.13 mph58%29.68 "HgN/A
5:30 AM50 °FLight rain. Passing clouds.18 mph62%29.68 "HgN/A
5:00 AM52 °FLight rain. Passing clouds.20 mph54%29.68 "HgN/A
4:30 AM52 °FPassing clouds.23 mph47%29.71 "HgN/A
4:00 AM54 °FPassing clouds.22 mph44%29.71 "HgN/A
3:30 AM52 °FPassing clouds.18 mph47%29.71 "HgN/A
3:00 AM54 °FPassing clouds.17 mph44%29.71 "HgN/A
2:30 AM52 °FPassing clouds.17 mph47%29.74 "HgN/A
2:00 AM54 °FPassing clouds.18 mph44%29.74 "HgN/A
1:30 AM52 °FPassing clouds.17 mph47%29.77 "HgN/A
1:00 AM52 °FPassing clouds.18 mph47%29.77 "HgN/A
12:30 AM52 °FPassing clouds.18 mph47%29.77 "HgN/A
12:00 AM52 °FPassing clouds.17 mph44%29.77 "HgN/A
11:30 PM
Apr 17
52 °FPassing clouds.13 mph44%29.80 "HgN/A
11:00 PM52 °FPassing clouds.14 mph44%29.80 "HgN/A
10:30 PM52 °FPassing clouds.14 mph44%29.80 "HgN/A
10:00 PM52 °FPassing clouds.15 mph44%29.80 "HgN/A
9:30 PM54 °FPassing clouds.16 mph41%29.80 "HgN/A
9:00 PM52 °FPassing clouds.9 mph44%29.80 "HgN/A
8:30 PM50 °FPassing clouds.3 mph58%29.80 "HgN/A
8:00 PM50 °FPassing clouds.5 mph62%29.80 "HgN/A
7:00 PM52 °FPassing clouds.13 mph58%29.80 "HgN/A
6:30 PM52 °FPassing clouds.9 mph58%29.80 "HgN/A
6:00 PM54 °FPassing clouds.6 mph54%29.80 "HgN/A
Weather by CustomWeather, © 2014

See weather overview